Погода в Пхии

Россия / Карачаево-Черкесская Республика     43°35′33″N   40°56′31″E
темп.,
°C
ветер,
м/с
пор.,
м/с
влажн.,
%
обл.,
%
осадки,
мм/ч
давл.,
гПа
погр.,
м
8 мая, сб
сб800:00+1ююв229519 0.0 102014
03:000юв229022 0.0 101915
06:000вюв2284100 0.0 102012
09:00+7ю3355100 0.0 1017320
12:00+10ююз3444100 0.0 1015722
15:00+11ююз343974 0.0 10141181
18:00+9ююз34545 0.0 1015251
21:00+3ююв3364100 0.0 101713
9 мая, вс
вс900:00+3ю4448100 0.0 101525
03:00+3ююз459199 0.3 1015135
06:00+3ю4799100 0.4 1012316
09:00+4ююз4699100 2.4 1010649
12:00+2ю46100100 14.0 1012363
15:00+1ю34100100 26.2 1014149
18:00−1ююз34100100 12.4 1018345
21:00−2ююз4599100 17.8 1022602
10 мая, пн
пн1000:00−4ю339697 1.8 1025196
03:00−9ююв22100100 2.1 102849
06:00−8ююв129672 0.1 1027126
09:00−4юз338982 0.4 1024613
12:00−3юз339897 1.6 1023532
15:00−3ююз4595100 4.1 1023685
18:00−4ююз449199 1.3 1024588
21:00−6ююз349399 1.5 1026213
11 мая, вт
вт1100:00−7ююз349998 0.0 1026114
03:00−12ююв339449 0.0 102831
06:00−7ю3493100 0.0 1025148
09:00−4ююз4592100 0.2 1021617
12:00−3ююз5697100 0.9 1020658
15:00−3ююз4596100 2.8 1021537
18:00−2ююз449481 0.4 1021366
21:00−4ююв349393 0.5 102245
12 мая, ср
ср1200:00−6ююв33695 0.0 102213
03:00−6юв33675 0.0 102212
06:00−3юв22674 0.0 101911
09:00+3ю339424 0.0 1015102
12:00+5ю349470 0.0 1015304
15:00+8ююз476821 0.1 10151454
18:00+6ю348215 0.0 1016128
21:00+1ююв44610 0.0 101817